• Join FlightAware (Why Join?)
  • Login
  • US Flag GB Flag 
16:01 EST


 

Airport Tracker/Info


-or-


 

Live Flight TrackerFlight Track Log ✈ FSR411 ✈ 23-Oct-2013 ✈ KCMI - KDET

Flight Track Log - Related Links

Times and Time Zones

All times are in EDT time to prevent confusion due to time zone crossing. See the FSR411 flight status page for this flight to view local times or setup timezone preferences in your user account.

Time Position Orientation Groundspeed Altitude Reporting Facility
EDT Latitude Longitude Course Direction KTS MPH feet Rate Location/Type
07:17 40.0833 -88.2531 73° East 206 237 4,500  Level Chicago Center
07:18 40.1031 -88.1711 73° East 236 272 6,400 2,280 Climbing Chicago Center
07:19 40.1314 -88.0822 67° East 267 307 9,200 3,060 Climbing Chicago Center
07:20 40.1625 -87.9828 68° East 291 335 12,700 3,540 Climbing Chicago Center
07:21 40.2014 -87.8561 68° East 347 399 16,400 3,540 Climbing Chicago Center
07:22 40.2411 -87.7297 68° East 373 429 20,000 3,120 Climbing Chicago Center
07:23 40.2831 -87.5942 68° East 399 459 22,800 1,440 Climbing Chicago Center
07:24 40.3333 -87.4239 69° East 441 507 23,000 60 Climbing Chicago Center
07:25 40.3792 -87.2725 68° East 447 514 23,000  Level Chicago Center
07:26 40.4239 -87.1222 69° East 444 511 23,000  Level Chicago Center
07:27 40.4692 -86.9703 69° East 447 514 23,000  Level Chicago Center
07:28 40.5147 -86.8172 69° East 450 518 23,000  Level Chicago Center
07:29 40.5603 -86.6647 68° East 448 516 23,000  Level Chicago Center
07:30 40.6050 -86.5089 69° East 453 521 23,000  Level Chicago Center
07:31 40.6497 -86.3544 69° East 454 522 23,000  Level Chicago Center
07:32 40.6978 -86.1839 70° East 454 522 23,000  Level Chicago Center
07:34 40.7419 -86.0342 69° East 446 513 23,000  Level Chicago Center
07:35 40.7850 -85.8817 70° East 446 513 23,000  Level Chicago Center
07:36 40.8286 -85.7303 69° East 446 513 23,000  Level Chicago Center
07:37 40.8708 -85.5792 70° East 443 510 23,000 -300 Level Chicago Center
07:38 40.9217 -85.3981 70° East 442 509 22,500 -840 Descending Chicago Center
07:39 40.9625 -85.2442 71° East 445 512 21,400 -1,200 Descending Chicago Center
07:40 41.0056 -85.0978 69° East 438 504 20,100 -1,380 Descending Chicago Center
07:41 41.0517 -84.9592 66° East 422 486 18,600 -1,500 Descending Chicago Center
07:42 41.0928 -84.8239 68° East 402 463 17,100 -780 Descending Chicago Center
07:43 41.1331 -84.6922 68° East 392 451 17,100 -60 Level Chicago Center
07:44 41.1825 -84.5311 68° East 396 456 17,000 -840 Descending Chicago Center
07:45 41.2247 -84.3953 68° East 400 460 15,500 -1,500 Descending Chicago Center
07:46 41.2650 -84.2625 68° East 392 451 14,000 -1,500 Descending Chicago Center
07:47 41.3033 -84.1347 68° East 378 435 12,500 -1,380 Descending Chicago Center
07:48 41.3433 -84.0086 67° East 374 430 11,200 -840 Descending Chicago Center
07:49 41.3811 -83.8831 68° East 371 427 10,800 -540 Descending Chicago Center
07:50 41.4008 -83.8008 72° East 367 422 10,300 -480 Descending Cleveland Center
07:51 41.4392 -83.6786 67° East 361 415 10,000 -180 Descending Cleveland Center
07:52 41.4875 -83.5406 65° Northeast 347 399 10,000  Level Cleveland Center
07:53 41.5350 -83.4267 61° Northeast 351 404 10,000  Level Cleveland Center
07:53 41.5353 -83.4272 304° West 351 404 10,000  Level Cleveland Center
07:54 41.5817 -83.3106 62° Northeast 357 411 10,000  Level Cleveland Center
07:54 41.5803 -83.3114 204° Southwest 353 406 10,000  Level Cleveland Center
07:55 41.6267 -83.1939 62° Northeast 357 411 10,000  Level Cleveland Center
07:56 41.6681 -83.0906 62° Northeast 347 399 10,000  Level Cleveland Center
07:56 41.6703 -83.0825 70° East 346 398 10,000  Level Cleveland Center
07:57 41.7094 -82.9844 62° Northeast 304 350 10,000  Level Cleveland Center
07:57 41.7131 -82.9767 58° Northeast 328 377 10,000  Level Cleveland Center
07:57 41.7533 -82.9008 55° Northeast 300 345 10,000  Level Cleveland Center
07:58 41.7678 -82.8708 57° Northeast 293 337 10,000  Level Cleveland Center
07:58 41.8022 -82.8092 53° Northeast 288 331 10,000  Level Cleveland Center
07:59 41.8175 -82.7889 45° Northeast 291 335 10,000 -120 Level Cleveland Center
08:00 41.8803 -82.7281 36° Northeast 283 326 9,900 -300 Descending Cleveland Center
08:00 41.8883 -82.7197 38° Northeast 286 329 9,700 -2,040 Descending Cleveland Center
08:01 41.9553 -82.7200 360° North 267 307 7,900 -1,800 Descending Cleveland Center
08:01 41.9511 -82.7197 177° South 278 320 8,000 -1,860 Climbing Cleveland Center
08:02 42.0203 -82.7481 343° North 264 304 6,200 -1,800 Descending Cleveland Center
08:02 42.0194 -82.7467 129° Southeast 262 302 6,200 -1,440 Level Cleveland Center
08:03 42.0875 -82.7747 343° North 259 298 4,500 -1,680 Descending Cleveland Center
08:04 42.1525 -82.8022 343° North 244 281 3,100 -1,500 Descending Cleveland Center
08:04 42.1647 -82.8083 340° North 248 285 3,000 -120 Descending Cleveland Center
08:05 42.2133 -82.8300 342° North 231 266 3,000  Level Cleveland Center
08:05 42.2253 -82.8339 346° North 235 270 3,000  Level Cleveland Center
08:06 42.2747 -82.8747 329° Northwest 210 242 3,000  Level Cleveland Center
08:06 42.2775 -82.8758 344° North 218 251 3,000  Level Cleveland Center
08:07 42.3139 -82.9139 322° Northwest 168 193 3,000 -120 Level Cleveland Center
08:07 42.3156 -82.9150 334° Northwest 183 211 2,900 -900 Descending Cleveland Center
08:08 42.3550 -82.9531 325° Northwest 155 178 2,000 -900 Descending Cleveland Center
08:08 42.3514 -82.9503 150° Southeast 170 196 2,000 -540 Level Cleveland Center
08:09 42.3781 -82.9786 322° Northwest 144 166 1,400 -540 Descending Cleveland Center
08:10 42.4047 -83.0056 323° Northwest 124 143 900 -540 Descending Cleveland Center